| time (UTC) | temp F | wind direction | speed knots | gust knots | rain 1hr in | rain 24hr in | rain mn in | humidity % | barometer mb |
| 20260506130047 | 75 | 0 | 0.0 | 0.0 | 0.00 | 0.00 | 0.00 | 93 | 1009.9 |
| 20260506125537 | 75 | 0 | 0.0 | 0.0 | 0.00 | 0.00 | 0.00 | 93 | 1009.9 |
| 20260506125037 | 75 | 0 | 0.0 | 0.0 | 0.00 | 0.00 | 0.00 | 93 | 1009.9 |
| 20260506124546 | 74 | 0 | 0.0 | 0.0 | 0.00 | 0.00 | 0.00 | 93 | 1009.9 |
| 20260506124037 | 74 | 0 | 0.0 | 0.0 | 0.00 | 0.00 | 0.00 | 93 | 1009.7 |
| 20260506123540 | 74 | 0 | 0.0 | 0.0 | 0.00 | 0.00 | 0.00 | 93 | 1009.8 |
| 20260506123045 | 74 | 0 | 0.0 | 0.0 | 0.00 | 0.00 | 0.00 | 93 | 1009.8 |
| 20260506122536 | 74 | 0 | 0.0 | 0.0 | 0.00 | 0.00 | 0.00 | 93 | 1009.9 |
| 20260506122040 | 74 | 0 | 0.0 | 0.0 | 0.00 | 0.00 | 0.00 | 93 | 1009.9 |
| 20260506121553 | 74 | 0 | 0.0 | 0.0 | 0.00 | 0.00 | 0.00 | 93 | 1009.8 |
| 20260506121037 | 74 | 0 | 0.0 | 0.0 | 0.00 | 0.00 | 0.00 | 93 | 1009.7 |
| 20260506120538 | 74 | 0 | 0.0 | 0.0 | 0.00 | 0.00 | 0.00 | 93 | 1009.7 |
| 20260506120057 | 74 | 0 | 0.0 | 0.0 | 0.00 | 0.00 | 0.00 | 93 | 1009.7 |
| 20260506115538 | 74 | 0 | 0.0 | 0.0 | 0.00 | 0.00 | 0.00 | 93 | 1009.6 |
| 20260506115037 | 74 | 0 | 0.0 | 0.0 | 0.00 | 0.00 | 0.00 | 93 | 1009.6 |
| 20260506114546 | 74 | 0 | 0.0 | 0.0 | 0.00 | 0.00 | 0.00 | 93 | 1009.6 |
| 20260506114038 | 74 | 0 | 0.0 | 0.0 | 0.00 | 0.00 | 0.00 | 92 | 1009.6 |
| 20260506113538 | 74 | 0 | 0.0 | 0.0 | 0.00 | 0.00 | 0.00 | 92 | 1009.5 |
| 20260506113045 | 74 | 0 | 0.0 | 0.0 | 0.00 | 0.00 | 0.00 | 92 | 1009.4 |
| 20260506112540 | 74 | 0 | 0.0 | 0.0 | 0.00 | 0.00 | 0.00 | 92 | 1009.4 |
| 20260506112037 | 74 | 0 | 0.0 | 0.0 | 0.00 | 0.00 | 0.00 | 92 | 1009.5 |
| 20260506111548 | 74 | 0 | 0.0 | 0.0 | 0.00 | 0.00 | 0.00 | 92 | 1009.3 |
| 20260506111037 | 74 | 0 | 0.0 | 0.0 | 0.00 | 0.00 | 0.00 | 92 | 1009.4 |
| 20260506110537 | 74 | 0 | 0.0 | 0.0 | 0.00 | 0.00 | 0.00 | 92 | 1009.3 |
| 20260506105538 | 74 | 0 | 0.0 | 0.0 | 0.00 | 0.00 | 0.00 | 92 | 1009.2 |
| 20260506105039 | 74 | 0 | 0.0 | 0.0 | 0.00 | 0.00 | 0.00 | 92 | 1009.1 |
| 20260506104601 | 74 | 0 | 0.0 | 0.0 | 0.00 | 0.00 | 0.00 | 92 | 1009.1 |
| 20260506104038 | 74 | 0 | 0.0 | 0.0 | 0.00 | 0.00 | 0.00 | 92 | 1008.9 |
| 20260506103538 | 74 | 0 | 0.0 | 0.0 | 0.00 | 0.00 | 0.00 | 92 | 1008.9 |
| 20260506103049 | 74 | 0 | 0.0 | 0.0 | 0.00 | 0.00 | 0.00 | 92 | 1008.9 |
| 20260506102538 | 75 | 0 | 0.0 | 0.0 | 0.00 | 0.00 | 0.00 | 92 | 1008.9 |
| 20260506102040 | 74 | 0 | 0.0 | 0.0 | 0.00 | 0.00 | 0.00 | 92 | 1008.8 |
| 20260506101554 | 74 | 0 | 0.0 | 0.0 | 0.00 | 0.00 | 0.00 | 92 | 1008.6 |
| 20260506045038 | 75 | 0 | 0.0 | 7.8 | 0.00 | 0.00 | 0.00 | 90 | 1009.0 |
| 20260506044547 | 75 | 0 | 0.0 | 5.2 | 0.00 | 0.00 | 0.00 | 90 | 1009.0 |
| 20260506044041 | 75 | 0 | 0.0 | 5.2 | 0.00 | 0.00 | 0.00 | 90 | 1008.9 |
| 20260506043537 | 75 | 0 | 0.0 | 7.8 | 0.00 | 0.00 | 0.00 | 89 | 1008.8 |
| 20260506043048 | 75 | 0 | 0.0 | 7.8 | 0.00 | 0.00 | 0.00 | 89 | 1008.6 |
| 20260506042538 | 75 | 0 | 0.0 | 0.9 | 0.00 | 0.00 | 0.00 | 89 | 1008.6 |
| 20260506042038 | 75 | 0 | 0.0 | 0.9 | 0.00 | 0.00 | 0.00 | 89 | 1008.5 |
| 20260506041602 | 75 | 0 | 0.0 | 8.7 | 0.00 | 0.00 | 0.00 | 89 | 1008.7 |
| 20260506041037 | 75 | 0 | 0.0 | 8.7 | 0.00 | 0.00 | 0.00 | 89 | 1008.6 |
| 20260506040537 | 75 | 0 | 0.0 | 7.8 | 0.00 | 0.00 | 0.00 | 89 | 1008.5 |
| 20260506040049 | 76 | 0 | 0.0 | 11.3 | 0.00 | 0.00 | 0.00 | 88 | 1008.3 |
| 20260506035537 | 76 | 0 | 0.9 | 11.3 | 0.00 | 0.00 | 0.00 | 88 | 1008.2 |
| 20260506035038 | 76 | 0 | 0.0 | 11.3 | 0.00 | 0.00 | 0.00 | 88 | 1008.0 |
| 20260506034550 | 76 | 0 | 0.0 | 8.7 | 0.00 | 0.00 | 0.00 | 88 | 1008.1 |
| 20260506034041 | 76 | 0 | 0.0 | 11.3 | 0.00 | 0.00 | 0.00 | 88 | 1008.2 |
| 20260506033538 | 76 | 0 | 0.9 | 11.3 | 0.00 | 0.00 | 0.00 | 88 | 1008.0 |
| 20260506033048 | 76 | 207 | 0.0 | 9.6 | 0.00 | 0.00 | 0.00 | 87 | 1008.1 |
| 20260506032538 | 76 | 0 | 0.0 | 12.2 | 0.00 | 0.00 | 0.00 | 87 | 1007.9 |
| 20260506032038 | 76 | 0 | 0.0 | 12.2 | 0.00 | 0.00 | 0.00 | 87 | 1007.8 |
| 20260506031545 | 76 | 0 | 0.0 | 11.3 | 0.00 | 0.00 | 0.00 | 87 | 1007.8 |
| 20260506031037 | 76 | 0 | 0.0 | 7.8 | 0.00 | 0.00 | 0.00 | 87 | 1007.7 |
| 20260506030542 | 76 | 0 | 0.0 | 8.7 | 0.00 | 0.00 | 0.00 | 87 | 1007.7 |
| 20260506030047 | 76 | 0 | 0.0 | 8.7 | 0.00 | 0.00 | 0.00 | 87 | 1007.6 |
| 20260506025537 | 76 | 0 | 0.0 | 8.7 | 0.00 | 0.00 | 0.00 | 88 | 1007.7 |
| 20260506025037 | 76 | 0 | 0.0 | 9.6 | 0.00 | 0.00 | 0.00 | 87 | 1007.5 |
| 20260506024548 | 76 | 0 | 0.0 | 9.6 | 0.00 | 0.00 | 0.00 | 87 | 1007.5 |
| 20260506024037 | 76 | 0 | 0.0 | 3.5 | 0.00 | 0.00 | 0.00 | 87 | 1007.4 |
| 20260506023538 | 76 | 0 | 0.0 | 7.0 | 0.00 | 0.00 | 0.00 | 87 | 1007.4 |
| 20260506023105 | 76 | 0 | 0.0 | 7.8 | 0.00 | 0.00 | 0.00 | 87 | 1007.4 |
| 20260506022539 | 76 | 0 | 0.0 | 7.8 | 0.00 | 0.00 | 0.00 | 86 | 1007.3 |
| 20260506022038 | 77 | 0 | 0.0 | 7.8 | 0.00 | 0.00 | 0.00 | 86 | 1007.3 |
| 20260506021610 | 77 | 0 | 0.0 | 7.8 | 0.00 | 0.00 | 0.00 | 86 | 1007.4 |
| 20260506021039 | 77 | 0 | 0.0 | 7.0 | 0.00 | 0.00 | 0.00 | 86 | 1007.4 |
| 20260506020537 | 77 | 0 | 0.0 | 7.0 | 0.00 | 0.00 | 0.00 | 86 | 1007.3 |
| 20260506020044 | 77 | 0 | 0.0 | 7.8 | 0.00 | 0.00 | 0.00 | 86 | 1007.2 |
| 20260506015541 | 77 | 0 | 0.0 | 7.8 | 0.00 | 0.00 | 0.00 | 86 | 1007.4 |
| 20260506015040 | 77 | 0 | 0.0 | 6.1 | 0.00 | 0.00 | 0.00 | 86 | 1007.3 |
| 20260506014547 | 77 | 0 | 0.0 | 7.0 | 0.00 | 0.00 | 0.00 | 86 | 1007.1 |
| 20260506014040 | 77 | 0 | 0.0 | 7.0 | 0.00 | 0.00 | 0.00 | 86 | 1007.0 |
| 20260506013541 | 77 | 0 | 0.0 | 7.0 | 0.00 | 0.00 | 0.00 | 86 | 1007.0 |
| 20260506013057 | 77 | 0 | 0.0 | 7.8 | 0.00 | 0.00 | 0.00 | 85 | 1006.8 |
| 20260506012539 | 77 | 0 | 0.0 | 7.8 | 0.00 | 0.00 | 0.00 | 85 | 1006.6 |
| 20260506012039 | 78 | 0 | 0.0 | 0.9 | 0.00 | 0.00 | 0.00 | 84 | 1006.6 |
| 20260506011559 | 78 | 0 | 0.0 | 1.7 | 0.00 | 0.00 | 0.00 | 84 | 1006.4 |
| 20260506011038 | 78 | 0 | 0.0 | 7.0 | 0.00 | 0.00 | 0.00 | 84 | 1006.2 |
| 20260506010538 | 78 | 0 | 0.0 | 8.7 | 0.00 | 0.00 | 0.00 | 83 | 1006.2 |
| 20260506010056 | 78 | 0 | 0.0 | 9.6 | 0.00 | 0.00 | 0.00 | 83 | 1006.1 |
| 20260506005540 | 79 | 0 | 1.7 | 9.6 | 0.00 | 0.00 | 0.00 | 83 | 1006.0 |
| 20260506005037 | 79 | 0 | 0.0 | 9.6 | 0.00 | 0.00 | 0.00 | 83 | 1006.1 |
| 20260506004543 | 79 | 0 | 0.0 | 9.6 | 0.00 | 0.00 | 0.00 | 83 | 1006.0 |
| 20260506004039 | 79 | 0 | 0.0 | 5.2 | 0.00 | 0.00 | 0.00 | 82 | 1006.0 |
| 20260506003537 | 79 | 0 | 0.0 | 7.8 | 0.00 | 0.00 | 0.00 | 82 | 1006.1 |
| 20260506003045 | 80 | 0 | 0.0 | 7.8 | 0.00 | 0.00 | 0.00 | 82 | 1006.1 |
| 20260506002538 | 80 | 0 | 0.0 | 7.0 | 0.00 | 0.00 | 0.00 | 82 | 1006.0 |
| 20260506002038 | 80 | 209 | 0.0 | 3.5 | 0.00 | 0.00 | 0.00 | 81 | 1006.1 |
| 20260506001554 | 80 | 0 | 0.0 | 8.7 | 0.00 | 0.00 | 0.00 | 81 | 1006.2 |
| 20260506001038 | 80 | 0 | 0.0 | 8.7 | 0.00 | 0.00 | 0.00 | 81 | 1006.2 |
| 20260506000537 | 81 | 0 | 0.0 | 8.7 | 0.00 | 0.00 | 0.00 | 81 | 1006.1 |
| 20260506000054 | 81 | 0 | 0.0 | 8.7 | 0.00 | 0.00 | 0.00 | 80 | 1006.1 |
| 20260505235539 | 81 | 0 | 0.0 | 8.7 | 0.00 | 0.00 | 0.00 | 80 | 1006.0 |
| 20260505235038 | 81 | 196 | 0.0 | 9.6 | 0.00 | 0.00 | 0.00 | 79 | 1006.0 |
| 20260505234551 | 81 | 0 | 0.0 | 9.6 | 0.00 | 0.00 | 0.00 | 80 | 1006.0 |
| 20260505234038 | 81 | 199 | 0.0 | 9.6 | 0.00 | 0.00 | 0.00 | 79 | 1006.0 |
| 20260505233537 | 82 | 0 | 0.9 | 14.8 | 0.00 | 0.00 | 0.00 | 79 | 1006.1 |
| 20260505233048 | 82 | 0 | 0.9 | 14.8 | 0.00 | 0.00 | 0.00 | 79 | 1005.9 |
| 20260505232537 | 82 | 208 | 0.0 | 10.4 | 0.00 | 0.00 | 0.00 | 79 | 1005.8 |
| 20260505232041 | 82 | 0 | 0.0 | 8.7 | 0.00 | 0.00 | 0.00 | 80 | 1005.9 |
| 20260505231603 | 82 | 0 | 0.9 | 8.7 | 0.00 | 0.00 | 0.00 | 79 | 1005.8 |
| 20260505231037 | 82 | 0 | 0.0 | 8.7 | 0.00 | 0.00 | 0.00 | 79 | 1005.8 |
| 20260505230538 | 83 | 0 | 0.0 | 8.7 | 0.00 | 0.00 | 0.00 | 78 | 1005.8 |
| 20260505230051 | 83 | 0 | 0.0 | 10.4 | 0.00 | 0.00 | 0.00 | 78 | 1006.0 |
| 20260505225538 | 83 | 0 | 0.9 | 10.4 | 0.00 | 0.00 | 0.00 | 78 | 1006.0 |
| 20260505225038 | 83 | 0 | 0.0 | 9.6 | 0.00 | 0.00 | 0.00 | 78 | 1005.9 |
| 20260505224551 | 83 | 0 | 0.0 | 15.6 | 0.00 | 0.00 | 0.00 | 76 | 1005.8 |
| 20260505224037 | 84 | 0 | 0.0 | 15.6 | 0.00 | 0.00 | 0.00 | 78 | 1005.9 |
| 20260505223537 | 83 | 219 | 0.0 | 7.8 | 0.00 | 0.00 | 0.00 | 77 | 1006.0 |
| 20260505223049 | 84 | 215 | 0.0 | 7.0 | 0.00 | 0.00 | 0.00 | 75 | 1005.9 |
| 20260505222539 | 84 | 0 | 0.0 | 7.8 | 0.00 | 0.00 | 0.00 | 78 | 1005.9 |
| 20260505222038 | 84 | 0 | 0.0 | 7.8 | 0.00 | 0.00 | 0.00 | 77 | 1005.9 |
| 20260505221550 | 84 | 0 | 0.0 | 9.6 | 0.00 | 0.00 | 0.00 | 76 | 1006.0 |
| 20260505221038 | 84 | 0 | 0.0 | 9.6 | 0.00 | 0.00 | 0.00 | 75 | 1005.9 |
| 20260505220537 | 85 | 0 | 0.0 | 9.6 | 0.00 | 0.00 | 0.00 | 76 | 1006.0 |
| 20260505220059 | 84 | 0 | 0.0 | 9.6 | 0.00 | 0.00 | 0.00 | 77 | 1005.9 |
| 20260505215537 | 85 | 0 | 0.0 | 10.4 | 0.00 | 0.00 | 0.00 | 77 | 1006.0 |
| 20260505215037 | 84 | 0 | 0.0 | 10.4 | 0.00 | 0.00 | 0.00 | 76 | 1006.0 |
| 20260505214556 | 85 | 182 | 0.0 | 10.4 | 0.00 | 0.00 | 0.00 | 75 | 1006.0 |
| 20260505214038 | 85 | 0 | 0.0 | 13.9 | 0.00 | 0.00 | 0.00 | 75 | 1006.0 |
| 20260505213537 | 86 | 0 | 0.9 | 13.9 | 0.00 | 0.00 | 0.00 | 72 | 1006.2 |
| 20260505213049 | 87 | 0 | 0.0 | 10.4 | 0.00 | 0.00 | 0.00 | 73 | 1006.1 |
| 20260505212538 | 86 | 182 | 0.9 | 13.0 | 0.00 | 0.00 | 0.00 | 74 | 1006.2 |
| 20260505212038 | 87 | 0 | 0.9 | 13.0 | 0.00 | 0.00 | 0.00 | 72 | 1006.2 |
| 20260505211546 | 86 | 0 | 1.7 | 13.0 | 0.00 | 0.00 | 0.00 | 74 | 1006.4 |
| 20260505211038 | 87 | 242 | 0.0 | 9.6 | 0.00 | 0.00 | 0.00 | 72 | 1006.4 |
| 20260505210537 | 87 | 0 | 0.0 | 8.7 | 0.00 | 0.00 | 0.00 | 73 | 1006.5 |
| 20260505210050 | 87 | 142 | 0.9 | 10.4 | 0.00 | 0.00 | 0.00 | 72 | 1006.7 |
| 20260505205538 | 86 | 0 | 0.0 | 10.4 | 0.00 | 0.00 | 0.00 | 74 | 1006.7 |
| 20260505205038 | 86 | 0 | 0.0 | 10.4 | 0.00 | 0.00 | 0.00 | 73 | 1006.7 |
| 20260505204545 | 86 | 186 | 0.0 | 9.6 | 0.00 | 0.00 | 0.00 | 75 | 1006.9 |
| 20260505204040 | 87 | 0 | 0.9 | 9.6 | 0.00 | 0.00 | 0.00 | 73 | 1006.8 |
| 20260505203537 | 87 | 204 | 0.0 | 8.7 | 0.00 | 0.00 | 0.00 | 74 | 1007.0 |
| 20260505203106 | 87 | 0 | 0.0 | 8.7 | 0.00 | 0.00 | 0.00 | 73 | 1007.1 |
| 20260505202538 | 88 | 0 | 0.0 | 5.2 | 0.00 | 0.00 | 0.00 | 74 | 1007.1 |
| 20260505202038 | 86 | 0 | 0.0 | 10.4 | 0.00 | 0.00 | 0.00 | 75 | 1007.2 |
| 20260505201557 | 85 | 0 | 0.0 | 10.4 | 0.00 | 0.00 | 0.00 | 76 | 1007.3 |
| 20260505201038 | 85 | 0 | 0.0 | 12.2 | 0.00 | 0.00 | 0.00 | 74 | 1007.4 |
| 20260505200538 | 85 | 209 | 1.7 | 12.2 | 0.00 | 0.00 | 0.00 | 77 | 1007.5 |
| 20260505200052 | 84 | 0 | 0.0 | 9.6 | 0.00 | 0.00 | 0.00 | 77 | 1007.6 |
| 20260505195539 | 85 | 0 | 0.0 | 10.4 | 0.00 | 0.00 | 0.00 | 74 | 1007.4 |
| 20260505195037 | 86 | 0 | 0.9 | 10.4 | 0.00 | 0.00 | 0.00 | 72 | 1007.5 |
| 20260505194547 | 86 | 171 | 0.9 | 14.8 | 0.00 | 0.00 | 0.00 | 75 | 1007.5 |
| 20260505194038 | 84 | 0 | 0.0 | 14.8 | 0.00 | 0.00 | 0.00 | 76 | 1007.7 |
| 20260505193537 | 85 | 0 | 1.7 | 14.8 | 0.00 | 0.00 | 0.00 | 75 | 1007.6 |
| 20260505193045 | 85 | 0 | 1.7 | 9.6 | 0.00 | 0.00 | 0.00 | 76 | 1007.7 |
| 20260505192537 | 85 | 0 | 1.7 | 11.3 | 0.00 | 0.00 | 0.00 | 75 | 1007.7 |
| 20260505192042 | 86 | 0 | 1.7 | 11.3 | 0.00 | 0.00 | 0.00 | 74 | 1007.8 |
| 20260505191603 | 87 | 0 | 0.9 | 10.4 | 0.00 | 0.00 | 0.00 | 72 | 1007.8 |
| 20260505191038 | 85 | 0 | 3.5 | 10.4 | 0.00 | 0.00 | 0.00 | 74 | 1007.8 |
| 20260505190538 | 85 | 0 | 1.7 | 10.4 | 0.00 | 0.00 | 0.00 | 75 | 1007.9 |
| 20260505190053 | 85 | 0 | 0.9 | 10.4 | 0.00 | 0.00 | 0.00 | 75 | 1007.9 |
| 20260505185538 | 85 | 0 | 0.9 | 13.9 | 0.00 | 0.00 | 0.00 | 75 | 1008.0 |
| 20260505185037 | 84 | 0 | 2.6 | 13.9 | 0.00 | 0.00 | 0.00 | 76 | 1008.0 |
| 20260505184548 | 84 | 203 | 1.7 | 10.4 | 0.00 | 0.00 | 0.00 | 77 | 1007.9 |
| 20260505184038 | 84 | 0 | 0.0 | 10.4 | 0.00 | 0.00 | 0.00 | 77 | 1007.9 |
| 20260505183539 | 84 | 0 | 0.9 | 11.3 | 0.00 | 0.00 | 0.00 | 75 | 1008.1 |
| 20260505183047 | 86 | 0 | 1.7 | 11.3 | 0.00 | 0.00 | 0.00 | 75 | 1008.0 |
| 20260505182537 | 84 | 0 | 0.0 | 8.7 | 0.00 | 0.00 | 0.00 | 76 | 1008.1 |
| 20260505182037 | 84 | 0 | 0.0 | 13.0 | 0.00 | 0.00 | 0.00 | 76 | 1008.1 |
| 20260505181550 | 85 | 0 | 2.6 | 13.0 | 0.00 | 0.00 | 0.00 | 75 | 1008.2 |
| 20260505181038 | 85 | 0 | 2.6 | 17.4 | 0.00 | 0.00 | 0.00 | 77 | 1008.1 |
| 20260505180537 | 84 | 0 | 0.0 | 17.4 | 0.00 | 0.00 | 0.00 | 78 | 1008.3 |
| 20260505180100 | 82 | 0 | 1.7 | 16.5 | 0.00 | 0.00 | 0.00 | 78 | 1008.3 |
| 20260505175538 | 83 | 186 | 1.7 | 13.9 | 0.00 | 0.00 | 0.00 | 76 | 1008.3 |
| 20260505175038 | 82 | 0 | 3.5 | 13.9 | 0.00 | 0.00 | 0.00 | 80 | 1008.4 |
| 20260505174547 | 82 | 0 | 4.3 | 13.0 | 0.00 | 0.00 | 0.00 | 79 | 1008.5 |
| 20260505174038 | 83 | 0 | 0.9 | 12.2 | 0.00 | 0.00 | 0.00 | 78 | 1008.6 |
| 20260505173537 | 82 | 192 | 1.7 | 12.2 | 0.00 | 0.00 | 0.00 | 80 | 1008.7 |
| 20260505173051 | 82 | 0 | 2.6 | 12.2 | 0.00 | 0.00 | 0.00 | 78 | 1008.7 |
| 20260505172537 | 81 | 0 | 3.5 | 12.2 | 0.00 | 0.00 | 0.00 | 80 | 1008.7 |
| 20260505172038 | 81 | 233 | 1.7 | 13.9 | 0.00 | 0.00 | 0.00 | 82 | 1008.8 |
| 20260505171550 | 80 | 0 | 3.5 | 13.9 | 0.00 | 0.00 | 0.00 | 81 | 1008.8 |
| 20260505171038 | 81 | 199 | 0.0 | 13.0 | 0.00 | 0.00 | 0.00 | 79 | 1009.0 |
| 20260505170537 | 82 | 216 | 3.5 | 13.0 | 0.00 | 0.00 | 0.00 | 80 | 1008.8 |
| 20260505170103 | 81 | 0 | 1.7 | 13.0 | 0.00 | 0.00 | 0.00 | 81 | 1008.8 |
| 20260505165537 | 82 | 195 | 0.9 | 13.0 | 0.00 | 0.00 | 0.00 | 81 | 1008.8 |
| 20260505165040 | 81 | 216 | 2.6 | 13.0 | 0.00 | 0.00 | 0.00 | 82 | 1009.0 |
| 20260505164553 | 80 | 232 | 0.9 | 10.4 | 0.00 | 0.00 | 0.00 | 83 | 1009.1 |
| 20260505164037 | 80 | 0 | 1.7 | 10.4 | 0.00 | 0.00 | 0.00 | 84 | 1009.0 |
| 20260505163538 | 78 | 0 | 0.0 | 9.6 | 0.00 | 0.00 | 0.00 | 86 | 1008.9 |
| 20260505163049 | 77 | 0 | 0.9 | 13.0 | 0.00 | 0.00 | 0.00 | 86 | 1009.3 |
| 20260505162538 | 77 | 0 | 0.0 | 13.0 | 0.00 | 0.00 | 0.00 | 86 | 1009.1 |
| 20260505162038 | 77 | 201 | 1.7 | 12.2 | 0.00 | 0.00 | 0.00 | 86 | 1009.2 |
| 20260505161546 | 77 | 0 | 0.9 | 11.3 | 0.00 | 0.00 | 0.00 | 86 | 1009.1 |
| 20260505161038 | 77 | 214 | 0.0 | 12.2 | 0.00 | 0.00 | 0.00 | 86 | 1009.3 |
| 20260505160538 | 77 | 205 | 0.9 | 12.2 | 0.00 | 0.00 | 0.00 | 86 | 1009.4 |
| 20260505153100 | 76 | 0 | 0.9 | 10.4 | 0.00 | 0.00 | 0.00 | 88 | 1009.0 |
| 20260505152538 | 75 | 0 | 0.0 | 10.4 | 0.00 | 0.00 | 0.00 | 88 | 1008.9 |
| 20260505152039 | 75 | 194 | 0.9 | 10.4 | 0.00 | 0.00 | 0.00 | 88 | 1008.9 |
| 20260505151602 | 75 | 236 | 1.7 | 10.4 | 0.00 | 0.00 | 0.00 | 88 | 1009.0 |
| 20260505151038 | 75 | 0 | 0.9 | 15.6 | 0.00 | 0.00 | 0.00 | 89 | 1009.1 |
| 20260505150542 | 75 | 182 | 1.7 | 15.6 | 0.00 | 0.00 | 0.00 | 89 | 1009.0 |
| 20260505140537 | 72 | 0 | 1.7 | 9.6 | 0.00 | 0.00 | 0.00 | 91 | 1008.8 |